Location: Dennis Manor
(64.8292°N, 147.5397°W)
Time: 08:08:16
(UTC+00:00)

Envisat - Pass Details

Date: 05 November 2020
Orbit: 764 x 766 km, 98.1° (Epoch: 05 December)

Event Time Altitude Azimuth Distance (km) Brightness Sun altitude
Rises 02:44:29 0° 171° (S) 3,230 6.4 -9.1°
Reaches altitude 10° 02:46:49 10° 175° (S) 2,307 5.6 -9.4°
Maximum altitude 02:51:51 62° 256° (WSW) 869 3.6 -9.9°
Drops below altitude 10° 02:56:56 10° 338° (NNW) 2,320 5.6 -10.4°
Sets 02:59:17 0° 342° (NNW) 3,250 6.3 -10.7°
